Wind_Speed
15 15 13 10 6 6 7 2 6 3 1 2 3 10 13 14 10 5 8 8 9 8 5 4 7 12 14 14 12 10 10 10 9 7 6 4 4 6 7 9 9 10 9 7 6 5 6 6 6
15 15 13 11 7 10 8 8 7 7 4 4 6 8 14 13 11 10 5 9 8 7 6 4 6 10 13 14 14 14 12 11 10 8 6 5 5 7 9 9 9 9 8 6 6 4 4 4 5
15 13 12 7 12 15 7 5 6 11 6 7 4 9 12 14 16 13 6 8 8 8 7 5 5 8 12 15 16 17 14 12 11 9 7 5 6 7 8 9 9 8 7 6 5 3 2 3 5
12 13 12 14 12 7 9 11 16 13 9 8 8 13 14 13 15 11 11 12 10 12 11 10 9 9 12 16 18 19 16 14 13 10 8 6 6 8 9 9 8 7 6 5 3 3 2 3 5
11 12 15 13 12 10 11 13 14 12 12 9 13 15 19 18 15 15 17 14 13 15 16 16 15 14 13 16 19 19 17 15 14 11 9 8 7 8 9 8 8 6 4 3 3 3 3 3 5
10 11 10 12 11 8 7 9 9 10 13 13 11 11 15 19 23 19 19 21 17 17 19 20 18 18 18 17 19 19 18 16 15 12 11 9 12 10 8 7 6 4 2 3 2 4 4 5 5
9 9 8 8 5 5 9 8 8 7 10 13 15 12 14 19 21 21 21 18 20 20 20 21 21 22 21 21 21 21 21 18 15 14 13 12 14 12 9 7 6 4 3 5 4 4 5 6 7
6 6 5 4 7 8 11 10 11 11 9 9 12 11 14 15 20 25 28 30 25 21 25 25 25 24 25 25 24 25 23 20 17 16 14 15 17 15 11 9 7 3 2 4 3 3 7 7 7
6 5 4 7 9 11 10 13 16 18 17 15 11 11 14 19 19 19 21 24 29 31 29 32 33 31 27 28 28 27 26 22 19 18 16 18 19 17 14 11 7 2 1 2 2 4 6 7 7
1 3 3 6 10 13 13 12 14 16 20 22 20 17 15 13 18 18 19 24 24 20 31 36 33 35 33 34 32 29 28 25 20 18 16 16 15 17 15 12 7 3 1 2 4 7 7 7 7
1 2 3 3 8 10 4 6 11 11 13 17 25 26 21 20 20 18 15 19 19 20 20 30 37 36 44 30 36 32 30 26 21 18 17 16 17 17 15 11 6 3 2 5 6 6 7 7 7
4 4 4 3 1 3 4 9 11 9 13 15 18 20 24 25 25 26 23 20 18 19 19 21 27 44 42 26 35 32 30 25 20 18 17 16 15 16 16 12 7 5 5 6 6 5 5 6 6
4 2 2 4 4 7 6 7 10 10 13 14 15 13 13 14 17 22 23 26 28 23 19 18 26 28 30 30 31 29 28 25 21 18 16 17 18 17 16 12 8 7 7 6 6 5 5 5 5
3 3 3 3 6 8 8 9 12 15 12 14 13 15 16 16 18 19 18 20 25 28 25 19 20 12 28 26 27 28 27 26 23 19 17 18 19 18 17 12 10 10 9 7 6 6 7 6 5
6 9 6 8 6 9 11 11 16 20 15 18 20 17 16 17 20 22 22 22 20 19 25 22 13 11 11 30 29 30 28 25 24 21 18 18 18 20 17 13 12 12 10 7 6 6 6 7 5
4 5 10 9 9 10 11 16 18 15 19 20 21 18 18 19 21 26 29 26 22 18 20 13 16 14 15 25 26 25 27 25 21 23 21 20 20 19 16 14 14 13 9 8 7 6 5 6 6
3 5 8 8 7 10 12 18 17 20 21 21 21 20 18 20 26 31 28 31 26 16 14 18 19 11 12 14 15 22 20 26 18 20 19 20 23 22 17 15 14 13 11 10 9 8 7 6 6
5 9 10 11 12 13 16 18 17 21 22 23 24 29 28 28 25 20 23 27 29 21 17 17 15 10 14 12 9 2 34 22 16 19 19 22 22 18 16 13 13 13 12 11 10 10 9 8 8
9 10 14 12 9 11 8 10 13 17 18 22 26 27 26 28 21 13 18 21 27 21 19 10 17 15 11 11 10 7 14 10 17 23 21 23 24 21 13 13 13 14 13 12 12 12 12 11 11
11 13 13 6 5 10 9 11 14 16 18 21 34 28 28 24 20 13 13 19 21 19 17 14 15 14 11 10 10 11 17 21 19 26 28 21 23 26 23 14 15 17 16 14 14 14 13 12 12
11 14 10 10 8 9 11 14 11 11 15 28 27 28 25 23 17 5 14 19 17 16 13 12 10 11 10 8 9 11 18 24 29 16 29 25 26 26 25 17 15 15 16 15 15 16 15 15 15
11 6 11 10 10 5 6 6 9 11 24 27 25 26 23 17 13 1 21 19 14 13 11 9 5 7 10 10 12 13 15 24 26 20 25 26 27 28 26 20 15 16 17 17 17 18 19 19 19
4 9 13 10 11 8 5 6 4 15 29 27 24 23 17 18 13 5 25 17 14 11 10 9 11 13 14 15 16 18 16 20 19 22 29 20 23 28 19 21 19 19 20 20 20 22 22 21 22
7 8 4 3 4 3 3 3 5 19 28 27 21 20 16 17 15 26 21 18 13 10 7 8 12 13 12 12 14 17 19 18 8 12 21 19 23 24 24 18 18 18 19 20 23 24 24 25 26
5 6 2 2 2 4 5 6 7 18 23 22 20 18 17 10 15 14 14 15 12 10 8 7 10 12 13 13 12 18 16 17 15 18 12 23 23 33 21 25 29 24 26 26 29 29 28 29 28
5 3 3 5 2 4 5 4 6 14 17 18 18 19 19 9 11 8 7 9 10 11 7 9 9 9 7 9 10 15 18 16 9 11 7 19 22 22 17 12 16 22 23 29 26 29 34 31 31
5 3 1 2 1 2 4 6 9 12 12 17 16 15 17 15 8 6 8 8 7 7 7 4 6 4 7 7 1 10 17 15 8 16 20 15 11 22 11 13 14 16 17 25 26 24 31 32 29
8 4 2 2 1 3 5 7 7 10 11 13 13 10 10 10 8 6 5 5 5 5 4 7 6 9 10 10 12 11 6 10 17 15 13 10 9 12 14 14 18 17 18 20 25 26 22 22 18
11 8 5 2 2 3 2 4 3 7 10 10 9 6 6 6 7 7 7 7 8 9 6 5 7 6 6 12 8 7 8 10 15 15 8 9 7 10 10 9 10 11 11 11 13 13 11 13 12
13 11 10 5 4 5 2 5 4 5 8 9 7 4 4 3 5 6 5 6 8 4 7 6 3 5 6 5 4 3 8 8 15 16 10 7 4 7 8 7 7 10 9 12 12 12 17 17 16
Wind_Direction
248 253 253 254 254 239 243 224 218 309 150 202 273 292 286 287 273 262 300 237 235 253 265 259 242 232 219 215 218 222 220 214 208 211 209 189 164 154 157 152 147 138 128 120 108 115 124 127 123
247 250 250 252 245 241 257 237 248 270 282 229 239 279 274 276 268 283 304 212 207 227 232 231 242 235 229 214 218 215 222 222 219 218 215 193 171 159 158 156 150 141 131 116 101 100 111 134 144
243 243 239 241 243 242 254 259 226 237 247 276 269 286 258 268 266 270 217 212 229 217 200 212 233 240 234 219 218 219 225 220 221 228 224 200 181 166 162 158 153 141 119 89 75 62 90 139 162
240 233 230 232 241 250 253 267 284 261 242 264 258 289 265 248 251 256 238 236 237 239 216 210 218 231 229 217 216 224 224 222 215 219 221 207 190 169 163 158 153 138 120 92 60 36 79 152 155
227 228 227 240 248 259 245 281 292 281 285 293 278 275 276 268 260 248 241 243 233 235 231 222 215 220 219 220 221 228 222 219 216 213 210 204 186 160 159 158 148 131 115 75 39 44 99 157 152
229 229 234 242 256 243 232 279 305 302 286 277 285 268 268 268 269 264 259 248 256 233 227 228 225 218 215 224 224 223 217 217 215 214 209 192 172 168 171 163 156 137 72 25 26 80 111 133 151
235 231 244 248 252 215 238 254 283 303 292 279 274 276 269 261 261 259 260 264 267 262 232 225 226 225 219 219 221 221 218 218 218 212 209 186 185 187 188 179 174 182 15 5 342 97 126 143 147
244 245 250 230 235 241 250 263 275 287 298 281 276 270 263 267 265 260 263 268 272 262 271 222 220 219 224 221 221 218 218 218 216 211 203 189 189 197 200 189 172 200 31 359 352 110 135 140 129
255 249 246 235 252 260 275 287 282 270 274 279 282 273 265 264 266 266 262 265 263 266 268 244 220 213 220 226 219 220 218 217 214 213 207 199 200 202 198 196 199 246 16 20 95 114 124 127 129
277 295 280 254 263 285 316 319 310 295 276 265 258 263 265 256 256 265 267 270 268 267 250 236 230 215 208 223 220 217 220 219 217 218 220 211 199 194 189 194 203 235 126 106 124 131 131 127 131
28 355 331 277 282 297 314 348 339 326 296 283 270 255 254 261 264 265 262 264 270 271 276 275 267 222 238 199 218 214 215 217 217 214 219 211 204 198 191 197 218 237 175 139 136 133 132 131 130
60 61 38 58 345 340 327 354 2 321 332 314 302 279 259 255 260 263 258 252 261 271 289 272 282 286 271 192 212 214 214 217 217 216 216 208 207 203 203 207 216 218 194 160 139 138 128 126 131
117 86 332 326 331 333 329 341 339 333 321 324 314 287 281 270 273 273 269 268 263 261 276 286 292 294 219 209 210 211 213 217 213 214 212 203 201 204 205 210 222 211 195 174 147 144 135 141 142
221 239 289 336 317 312 304 304 329 328 329 336 301 290 286 278 283 282 283 270 265 263 268 280 287 294 201 208 207 212 213 217 215 213 209 204 201 200 202 212 223 211 198 182 162 158 150 152 165
282 248 262 288 306 310 297 294 315 318 306 325 335 275 276 272 273 281 277 272 258 254 258 272 282 304 257 215 209 211 208 214 221 217 209 206 204 196 202 211 213 211 199 184 173 176 156 157 190
307 288 302 304 292 304 291 295 314 318 316 320 324 317 264 262 274 279 270 266 263 262 251 244 265 275 289 241 217 234 202 201 211 207 201 200 202 200 202 206 204 207 205 189 183 186 181 177 191
290 301 312 297 310 303 273 295 315 315 318 315 317 317 287 269 279 292 274 252 251 246 246 237 258 275 294 308 250 203 224 182 192 194 196 199 192 198 194 198 204 209 208 195 194 196 198 204 204
301 314 326 321 306 288 278 293 309 317 316 319 324 313 306 299 300 287 253 244 240 238 251 236 233 242 276 280 103 248 171 188 195 190 193 200 204 191 192 198 210 216 217 206 205 209 212 218 225
314 311 320 323 302 316 307 309 329 325 324 310 314 317 311 306 311 294 243 227 235 229 231 232 226 229 254 269 223 219 204 212 200 192 196 202 205 205 194 193 218 223 224 219 218 221 224 228 237
299 304 311 297 299 305 302 315 308 310 311 313 326 324 325 316 312 293 222 213 222 229 225 221 235 213 227 246 251 241 211 212 219 208 199 206 212 203 213 199 212 218 222 229 232 238 242 245 253
291 298 303 301 295 285 294 303 324 317 325 329 331 331 333 331 328 271 189 197 203 219 214 225 246 217 214 219 235 244 229 221 228 239 213 201 211 223 213 211 216 220 222 226 237 245 250 253 253
298 294 311 288 295 282 301 288 310 331 337 339 344 342 348 358 350 4 173 179 178 201 194 207 231 234 225 220 241 239 246 241 208 240 222 214 212 219 224 194 216 223 226 228 233 240 246 250 252
283 296 305 266 264 278 263 292 281 335 348 352 354 355 7 7 7 112 161 157 169 167 173 207 246 257 225 227 221 227 229 235 275 298 221 207 214 216 215 205 213 222 226 231 237 241 243 247 252
271 307 306 225 243 271 232 305 287 344 349 357 1 11 23 32 62 135 141 149 152 169 181 206 219 215 213 208 202 211 222 235 222 245 245 248 229 219 222 215 220 229 233 242 247 246 246 246 251
269 302 294 321 330 231 241 294 296 347 353 358 4 15 20 49 109 128 148 167 160 157 199 220 202 200 203 210 228 227 212 187 214 238 235 190 229 216 223 223 224 235 241 255 251 250 244 251 255
249 267 196 209 212 275 268 248 303 340 1 5 11 11 19 88 101 116 140 162 184 197 230 221 212 216 230 252 248 220 195 210 204 203 209 204 191 197 203 183 208 227 260 244 252 257 248 254 264
217 232 221 163 302 319 272 285 312 340 1 13 15 20 36 126 104 94 103 130 158 201 222 200 177 174 115 71 193 211 200 187 183 200 203 210 202 218 240 240 223 257 249 253 250 259 255 253 266
224 210 211 202 107 278 284 286 269 342 5 19 19 23 44 95 104 99 98 131 152 169 197 175 165 158 136 123 88 91 145 209 175 154 144 167 211 234 245 242 252 250 247 244 244 248 247 247 249
207 211 217 212 211 180 295 264 269 346 13 19 24 24 39 66 85 79 74 80 82 83 99 122 127 138 178 165 130 133 152 197 189 210 215 148 154 163 173 204 211 220 222 225 224 226 231 236 235
221 234 230 215 200 220 248 273 239 341 8 22 39 63 16 82 87 83 75 77 86 76 92 95 116 124 33 28 130 112 179 202 177 157 151 145 219 213 212 231 239 233 227 221 242 252 228 231 230
Height
3149 3149 3150 3152 3157 3152 3151 3152 3151 3152 3152 3151 3151 3152 3153 3152 3152 3154 3151 3150 3150 3151 3151 3152 3153 3153 3154 3155 3156 3158 3158 3159 3159 3159 3159 3159 3160 3160 3161 3162 3163 3164 3165 3165 3166 3166 3166 3167 3167
3146 3147 3149 3149 3152 3150 3150 3150 3151 3150 3150 3149 3149 3149 3150 3149 3149 3149 3149 3150 3150 3151 3151 3151 3152 3153 3154 3155 3156 3157 3158 3159 3159 3159 3159 3160 3160 3160 3161 3162 3163 3165 3166 3166 3167 3167 3167 3167 3168
3145 3146 3149 3148 3147 3147 3148 3149 3148 3147 3148 3148 3148 3147 3148 3148 3147 3148 3149 3149 3150 3151 3151 3152 3152 3153 3153 3154 3155 3156 3157 3158 3159 3159 3160 3160 3160 3160 3161 3162 3163 3165 3166 3167 3167 3167 3167 3167 3167
3143 3145 3146 3145 3144 3146 3147 3147 3144 3144 3146 3146 3145 3145 3145 3146 3147 3148 3148 3148 3149 3150 3150 3150 3151 3152 3153 3153 3154 3155 3157 3157 3158 3159 3159 3160 3160 3161 3161 3162 3164 3165 3166 3167 3167 3167 3167 3167 3167
3142 3142 3142 3142 3143 3144 3145 3144 3143 3143 3143 3142 3142 3142 3142 3144 3145 3146 3147 3147 3147 3148 3149 3150 3149 3151 3152 3153 3153 3154 3156 3157 3158 3158 3158 3159 3160 3161 3162 3163 3164 3165 3167 3167 3167 3167 3167 3167 3167
3140 3141 3141 3140 3141 3142 3143 3142 3141 3142 3140 3140 3140 3140 3140 3140 3142 3143 3144 3145 3145 3145 3146 3148 3149 3150 3150 3151 3152 3153 3154 3156 3157 3158 3158 3159 3160 3161 3162 3163 3164 3166 3167 3167 3167 3166 3167 3167 3167
3139 3139 3139 3139 3140 3140 3139 3140 3140 3139 3139 3138 3137 3138 3137 3137 3139 3140 3141 3142 3143 3144 3143 3145 3147 3149 3149 3150 3151 3151 3153 3155 3156 3157 3158 3159 3161 3160 3162 3162 3164 3166 3166 3167 3167 3167 3166 3167 3167
3136 3137 3137 3137 3137 3138 3138 3138 3138 3137 3138 3136 3135 3135 3134 3134 3134 3137 3138 3139 3140 3141 3142 3140 3142 3146 3147 3149 3149 3150 3151 3153 3154 3156 3157 3159 3160 3160 3162 3163 3164 3166 3165 3166 3168 3168 3166 3167 3167
3135 3136 3135 3135 3136 3136 3137 3137 3135 3135 3134 3134 3134 3132 3132 3132 3132 3132 3134 3135 3135 3136 3138 3137 3136 3138 3143 3147 3147 3148 3148 3150 3152 3154 3156 3157 3158 3160 3162 3163 3164 3164 3164 3165 3167 3168 3168 3167 3168
3134 3134 3134 3134 3134 3134 3135 3134 3132 3131 3130 3131 3130 3130 3129 3128 3128 3129 3130 3131 3132 3131 3132 3132 3134 3134 3135 3140 3144 3144 3146 3147 3150 3153 3155 3156 3158 3159 3161 3162 3163 3163 3163 3165 3167 3167 3168 3169 3170
3133 3133 3133 3133 3133 3133 3133 3132 3130 3127 3127 3126 3124 3126 3125 3125 3125 3125 3126 3127 3127 3126 3125 3122 3128 3127 3124 3116 3137 3138 3141 3144 3148 3151 3153 3155 3157 3159 3160 3162 3163 3162 3163 3164 3166 3167 3168 3169 3170
3133 3132 3132 3132 3132 3132 3131 3130 3129 3127 3125 3123 3121 3120 3120 3119 3119 3120 3120 3121 3122 3123 3123 3124 3123 3113 3110 3108 3128 3133 3136 3141 3145 3148 3151 3153 3155 3158 3160 3161 3162 3162 3162 3164 3166 3167 3168 3169 3171
3132 3132 3131 3131 3130 3130 3129 3127 3126 3125 3124 3122 3120 3118 3117 3115 3114 3113 3114 3116 3115 3118 3119 3119 3115 3111 3107 3116 3118 3126 3132 3138 3142 3145 3148 3151 3153 3156 3159 3160 3161 3162 3162 3164 3165 3167 3169 3169 3171
3131 3131 3130 3129 3128 3127 3127 3125 3124 3123 3122 3121 3119 3117 3115 3113 3112 3110 3109 3109 3109 3109 3110 3113 3112 3109 3110 3113 3114 3122 3128 3135 3139 3142 3144 3148 3150 3153 3157 3159 3159 3161 3162 3164 3165 3167 3169 3169 3170
3130 3130 3129 3127 3126 3125 3124 3123 3121 3120 3118 3117 3115 3113 3111 3109 3108 3106 3105 3104 3103 3103 3103 3104 3103 3102 3103 3108 3112 3117 3123 3131 3135 3138 3141 3145 3148 3151 3155 3156 3157 3159 3162 3164 3165 3166 3168 3169 3170
3128 3128 3127 3126 3123 3122 3122 3119 3118 3116 3115 3113 3111 3108 3106 3104 3102 3101 3099 3098 3098 3099 3099 3099 3101 3103 3105 3111 3111 3110 3113 3124 3130 3135 3138 3141 3146 3150 3153 3154 3155 3157 3160 3162 3164 3165 3167 3168 3170
3127 3126 3125 3123 3122 3120 3119 3116 3115 3113 3110 3108 3106 3103 3101 3098 3095 3093 3090 3090 3093 3096 3096 3098 3100 3100 3107 3107 3106 3100 3103 3119 3126 3130 3136 3139 3143 3146 3149 3151 3154 3155 3157 3161 3162 3164 3165 3167 3168
3125 3124 3122 3120 3120 3117 3115 3114 3112 3109 3106 3103 3100 3097 3093 3089 3085 3082 3082 3083 3086 3090 3092 3093 3095 3099 3102 3106 3103 3103 3106 3116 3122 3127 3133 3138 3141 3143 3146 3148 3151 3153 3155 3158 3161 3163 3163 3164 3165
3123 3122 3120 3118 3116 3114 3112 3110 3110 3107 3104 3099 3095 3090 3085 3080 3077 3074 3073 3076 3080 3086 3089 3091 3095 3096 3099 3104 3105 3106 3111 3113 3118 3124 3130 3135 3139 3141 3142 3147 3149 3151 3152 3155 3158 3160 3161 3162 3163
3122 3120 3118 3117 3115 3113 3110 3108 3107 3104 3101 3095 3088 3083 3077 3072 3070 3067 3067 3071 3076 3082 3086 3090 3092 3093 3097 3100 3103 3106 3108 3112 3116 3119 3123 3129 3134 3138 3142 3143 3147 3149 3150 3151 3153 3156 3158 3160 3161
3120 3118 3117 3116 3113 3111 3108 3105 3103 3101 3097 3093 3085 3078 3072 3065 3063 3062 3064 3067 3073 3079 3084 3090 3092 3092 3096 3098 3100 3103 3106 3107 3110 3112 3116 3121 3127 3131 3137 3139 3143 3146 3148 3149 3150 3151 3154 3156 3158
3117 3116 3115 3114 3113 3110 3109 3106 3101 3099 3096 3089 3082 3073 3067 3064 3062 3061 3064 3068 3073 3078 3085 3088 3091 3094 3095 3096 3098 3101 3105 3105 3104 3112 3114 3116 3122 3128 3132 3132 3138 3142 3146 3147 3148 3149 3150 3151 3153
3116 3114 3113 3111 3111 3110 3107 3106 3098 3097 3092 3085 3079 3073 3067 3063 3060 3060 3066 3071 3076 3081 3085 3087 3089 3092 3093 3093 3097 3099 3101 3105 3104 3107 3105 3113 3115 3121 3125 3129 3134 3139 3141 3143 3144 3145 3146 3147 3148
3114 3113 3112 3111 3110 3109 3105 3106 3098 3096 3090 3083 3078 3073 3069 3066 3063 3064 3069 3073 3077 3080 3083 3086 3087 3089 3091 3093 3095 3097 3099 3103 3104 3105 3105 3107 3111 3117 3120 3123 3130 3134 3137 3139 3140 3140 3142 3141 3143
3112 3111 3111 3113 3112 3108 3104 3103 3098 3096 3090 3085 3078 3074 3071 3070 3070 3071 3070 3073 3076 3080 3083 3084 3086 3088 3090 3092 3094 3094 3098 3099 3100 3102 3102 3104 3109 3114 3118 3122 3126 3130 3133 3134 3135 3135 3136 3137 3137
3110 3110 3110 3118 3115 3107 3103 3101 3098 3095 3091 3086 3081 3076 3073 3071 3072 3074 3075 3075 3076 3079 3081 3084 3085 3087 3091 3091 3092 3092 3095 3097 3096 3098 3097 3101 3107 3111 3115 3117 3121 3124 3127 3128 3130 3129 3130 3130 3131
3108 3108 3109 3107 3108 3108 3102 3099 3097 3095 3092 3087 3083 3080 3077 3074 3074 3075 3077 3078 3079 3080 3082 3084 3085 3088 3089 3089 3086 3089 3093 3094 3094 3095 3098 3102 3103 3108 3113 3113 3114 3118 3120 3122 3125 3126 3126 3124 3124
3106 3107 3107 3106 3110 3109 3101 3098 3096 3094 3091 3088 3085 3084 3082 3080 3079 3078 3078 3079 3081 3082 3083 3085 3086 3088 3088 3089 3089 3088 3090 3093 3097 3097 3099 3103 3104 3106 3108 3110 3112 3114 3115 3118 3120 3120 3121 3121 3118
3104 3103 3104 3106 3106 3105 3106 3097 3095 3093 3091 3089 3086 3085 3084 3082 3080 3080 3080 3080 3081 3081 3082 3084 3088 3088 3089 3090 3091 3091 3093 3094 3095 3099 3102 3103 3104 3105 3105 3109 3108 3112 3112 3114 3116 3117 3117 3116 3115
3099 3100 3101 3103 3104 3103 3102 3097 3093 3093 3091 3089 3087 3086 3085 3084 3083 3083 3082 3082 3083 3083 3084 3085 3086 3088 3089 3089 3088 3093 3094 3094 3095 3101 3102 3102 3103 3106 3106 3106 3107 3111 3112 3112 3113 3113 3114 3112 3112